EW0754 Weather Reports


time (UTC)temp
F
wind
direction
speed
knots
gust
knots
rain 1hr
in
rain 24hr
in
rain mn
in
humidity
%
barometer
mb
20260505040903 62 224 5.2 10.4 0.00 0.00 0.00 66 1000.7
20260505040404 62 236 4.3 6.1 0.00 0.00 0.00 66 1000.8
20260505035904 61 217 4.3 10.4 0.00 0.00 0.00 66 1000.6
20260505035403 61 226 4.3 7.8 0.00 0.00 0.00 66 1000.6
20260505034903 61 216 4.3 6.1 0.00 0.00 0.00 66 1000.7
20260505034403 61 225 4.3 7.8 0.00 0.00 0.00 66 1000.7
20260505033904 61 227 4.3 7.0 0.00 0.00 0.00 65 1000.8
20260505033403 61 216 2.6 5.2 0.00 0.00 0.00 65 1001.0
20260505032904 61 232 2.6 4.3 0.00 0.00 0.00 65 1001.0
20260505032404 61 224 2.6 6.1 0.00 0.00 0.00 65 1001.1
20260505031903 61 240 1.7 6.1 0.00 0.00 0.00 64 1001.2
20260505031403 62 245 1.7 7.8 0.00 0.00 0.00 64 1001.2
20260505030904 62 237 3.5 8.7 0.00 0.00 0.00 64 1001.2
20260505030404 62 233 4.3 7.0 0.00 0.00 0.00 63 1001.3
20260505025903 62 240 2.6 5.2 0.00 0.00 0.00 63 1001.4
20260505025403 62 244 2.6 7.8 0.00 0.00 0.00 62 1001.4
20260505024903 62 227 3.5 7.0 0.00 0.00 0.00 61 1001.4
20260505024404 62 244 3.5 7.8 0.00 0.00 0.00 60 1001.4
20260505023904 61 235 4.3 10.4 0.00 0.00 0.00 59 1001.4
20260505023404 61 237 6.1 10.4 0.00 0.00 0.00 58 1001.4
20260505022904 60 231 4.3 10.4 0.00 0.00 0.00 58 1001.5
20260505021403 60 226 1.7 2.6 0.00 0.00 0.00 57 1001.3
20260505020404 60 223 2.6 4.3 0.00 0.00 0.00 57 1001.3
20260505015903 61 225 2.6 6.1 0.00 0.00 0.00 57 1001.3
20260505015403 61 217 2.6 5.2 0.00 0.00 0.00 56 1001.3
20260505014404 61 221 1.7 4.3 0.00 0.00 0.00 56 1001.3
20260505013903 61 215 2.6 7.0 0.00 0.00 0.00 57 1001.4
20260505012904 61 206 3.5 7.0 0.00 0.00 0.00 57 1001.4
20260505012404 62 214 3.5 7.0 0.00 0.00 0.00 56 1001.5
20260505011903 62 217 2.6 4.3 0.00 0.00 0.00 57 1001.5
20260505010904 63 217 3.5 5.2 0.00 0.00 0.00 55 1001.4
20260505010404 63 217 2.6 5.2 0.00 0.00 0.00 55 1001.4
20260505005904 64 213 4.3 7.0 0.00 0.00 0.00 54 1001.4
20260505005404 64 215 2.6 4.3 0.00 0.00 0.00 53 1001.3
20260505004903 65 209 1.7 6.1 0.00 0.00 0.00 50 1001.2
20260505002404 66 215 2.6 6.1 0.00 0.00 0.00 49 1001.2
20260505001903 67 216 1.7 4.3 0.00 0.00 0.00 49 1001.2
20260505001404 67 213 2.6 6.1 0.00 0.00 0.00 49 1001.2
20260505000904 67 221 2.6 4.3 0.00 0.00 0.00 49 1001.3
20260504235904 68 231 1.7 2.6 0.00 0.00 0.00 49 1001.4
20260504235403 68 235 2.6 4.3 0.00 0.00 0.00 48 1001.4
20260504234404 69 247 3.5 6.1 0.00 0.00 0.00 47 1001.4
20260504233904 69 250 2.6 5.2 0.00 0.01 0.00 47 1001.4
20260504233404 69 274 3.5 7.8 0.00 0.01 0.00 47 1001.4
20260504232903 69 263 4.3 7.0 0.00 0.01 0.00 47 1001.4
20260504232403 69 263 5.2 10.4 0.00 0.01 0.00 46 1001.5
20260504231903 69 277 4.3 7.0 0.00 0.01 0.00 46 1001.5
20260504231403 69 261 4.3 7.0 0.00 0.01 0.00 46 1001.5
20260504230904 69 264 3.5 10.4 0.00 0.01 0.00 46 1001.5
20260504230404 69 280 7.0 13.9 0.00 0.01 0.00 46 1001.5
20260504225904 69 255 6.1 11.3 0.00 0.01 0.00 45 1001.5
20260504225403 69 279 2.6 10.4 0.00 0.01 0.00 45 1001.5
20260504224904 70 260 3.5 8.7 0.00 0.02 0.00 44 1001.5
20260504224404 69 268 5.2 8.7 0.00 0.02 0.00 43 1001.6
20260504223903 70 290 6.1 13.0 0.00 0.02 0.00 44 1001.5
20260504223403 70 277 8.7 13.9 0.00 0.02 0.00 42 1001.6
20260504222904 70 277 6.1 11.3 0.00 0.02 0.00 42 1001.6
20260504222404 70 287 8.7 12.2 0.00 0.02 0.00 43 1001.5
20260504221904 70 285 6.1 11.3 0.00 0.02 0.00 44 1001.7
20260504221404 70 291 6.1 10.4 0.00 0.02 0.00 44 1001.6
20260504220903 70 284 10.4 14.8 0.00 0.02 0.00 42 1001.6
20260504220403 70 288 10.4 20.0 0.00 0.02 0.00 43 1001.6
20260504215903 71 292 10.4 14.8 0.00 0.02 0.00 40 1001.7
20260504215403 71 295 11.3 17.4 0.00 0.02 0.00 42 1001.6
20260504214904 71 292 8.7 17.4 0.00 0.02 0.00 42 1001.7
20260504214404 72 273 10.4 15.6 0.00 0.02 0.00 40 1001.6
20260504213903 72 276 7.8 12.2 0.00 0.02 0.00 41 1001.6
20260504213403 71 256 6.1 11.3 0.00 0.02 0.00 43 1001.5
20260504212903 71 269 11.3 18.2 0.00 0.02 0.00 43 1001.5
20260504211904 71 267 7.8 17.4 0.00 0.02 0.00 42 1001.7
20260504211403 71 259 8.7 13.9 0.00 0.02 0.00 44 1001.6
20260504210404 71 264 10.4 15.6 0.00 0.02 0.00 44 1001.7
20260504205904 71 255 8.7 14.8 0.00 0.02 0.00 44 1001.8
20260504205404 71 260 8.7 17.4 0.00 0.02 0.00 45 1001.8
20260504203903 71 278 7.8 19.1 0.00 0.02 0.00 44 1001.9
20260504202903 71 269 7.8 19.1 0.00 0.02 0.00 45 1002.0
20260504201403 71 255 8.7 15.6 0.00 0.02 0.00 44 1002.0
20260504200904 71 243 10.4 14.8 0.00 0.02 0.00 44 1002.1
20260504200404 71 252 6.1 12.2 0.00 0.02 0.00 46 1002.1
20260504195904 71 247 10.4 18.2 0.00 0.02 0.00 44 1002.3
20260504195403 71 260 5.2 13.9 0.00 0.02 0.00 49 1002.4
20260504194903 71 279 8.7 17.4 0.00 0.02 0.00 46 1002.4
20260504194403 71 264 9.6 18.2 0.00 0.02 0.00 49 1002.5
20260504193903 70 280 7.8 18.2 0.00 0.02 0.00 49 1002.6
20260504193403 70 256 10.4 17.4 0.00 0.02 0.00 48 1002.8
20260504192903 70 268 9.6 15.6 0.00 0.02 0.00 46 1002.8
20260504192404 70 240 8.7 13.9 0.00 0.02 0.00 48 1002.8
20260504191904 70 250 6.1 13.0 0.00 0.02 0.00 50 1003.0
20260504191403 70 273 8.7 20.0 0.00 0.02 0.00 50 1003.1
20260504190904 69 263 10.4 20.9 0.00 0.02 0.00 49 1003.1
20260504190404 69 277 10.4 24.3 0.00 0.02 0.00 50 1003.2
20260504185904 69 275 13.0 25.2 0.00 0.02 0.00 49 1003.3
20260504185404 69 293 7.0 17.4 0.00 0.02 0.00 53 1003.3
20260504184904 69 258 11.3 24.3 0.00 0.02 0.00 51 1003.4
20260504183904 69 252 9.6 17.4 0.00 0.02 0.00 51 1003.5
20260504183403 69 256 11.3 17.4 0.00 0.02 0.00 50 1003.7
20260504182904 69 262 10.4 21.7 0.00 0.02 0.00 50 1003.6
20260504182404 69 254 8.7 15.6 0.00 0.02 0.00 52 1003.7
20260504181403 68 256 7.8 13.9 0.00 0.02 0.00 55 1003.7
20260504180904 68 243 7.8 13.9 0.00 0.02 0.00 54 1003.8
20260504180403 68 243 7.8 13.9 0.00 0.02 0.00 55 1003.9
20260504175903 67 267 9.6 18.2 0.00 0.02 0.00 55 1004.0
20260504175403 67 265 8.7 15.6 0.00 0.02 0.00 56 1004.1
20260504174903 67 261 10.4 19.1 0.00 0.02 0.00 56 1004.2
20260504174403 66 262 11.3 19.1 0.00 0.02 0.00 56 1004.3
20260504173904 66 270 11.3 20.9 0.00 0.02 0.00 57 1004.2
20260504173403 66 291 10.4 20.0 0.00 0.02 0.00 57 1004.3
20260504172904 66 260 7.8 18.2 0.00 0.02 0.00 56 1004.3
20260504172404 65 274 10.4 14.8 0.00 0.02 0.00 56 1004.4
20260504171903 65 274 13.0 24.3 0.00 0.02 0.00 59 1004.4
20260504171405 65 260 9.6 17.4 0.00 0.02 0.00 58 1004.5
20260504170903 65 248 8.7 17.4 0.00 0.02 0.00 57 1004.5
20260504170403 64 255 11.3 17.4 0.00 0.02 0.00 56 1004.6
20260504160404 62 273 10.4 15.6 0.00 0.02 0.00 57 1004.9
20260504150903 61 250 10.4 19.1 0.00 0.02 0.00 58 1005.4
20260504150403 61 263 7.8 17.4 0.00 0.02 0.00 58 1005.4
20260504140904 60 262 12.2 18.2 0.00 0.02 0.00 57 1005.3
20260504140404 59 272 10.4 20.0 0.00 0.02 0.00 58 1005.2
20260504130404 57 259 8.7 17.4 0.00 0.02 0.00 58 1005.7
20260504110403 52 256 5.2 7.8 0.00 0.02 0.00 62 1006.0
20260504081904 48 251 2.6 5.2 0.00 0.02 0.00 68 1006.4
20260504080904 48 243 3.5 6.1 0.00 0.02 0.00 69 1006.5
20260504080404 48 231 2.6 5.2 0.00 0.02 0.00 69 1006.6
20260504070403 50 254 6.1 10.4 0.00 0.02 0.00 70 1007.2
20260504050404 51 263 7.0 11.3 0.00 0.02 0.00 63 1008.0
20260504045903 51 255 4.3 10.4 0.00 0.02 0.00 62 1008.0
20260504045403 52 265 5.2 11.3 0.00 0.02 0.00 61 1008.0
20260504044903 52 256 6.1 8.7 0.00 0.02 0.00 61 1008.1
20260504044403 52 260 6.1 10.4 0.00 0.02 0.00 60 1008.1
20260504043904 53 250 5.2 11.3 0.00 0.02 0.00 60 1008.2
20260504043404 53 269 5.2 7.8 0.00 0.02 0.00 59 1008.1
20260504042404 53 265 6.1 13.0 0.00 0.02 0.00 58 1008.2
20260504041903 53 272 4.3 11.3 0.00 0.02 0.00 58 1008.2